"2010-02-27 00:00:00",1716759,6.048,143.7,5.282,1,7.912,101.4424,2.98,4.29,33.77,0,109.9,13.44,3.74,105.7
"2010-02-27 00:00:30",1716760,6.195,149,3.597,0.89,8.23,101.4241,2.933,4.332,33.84,0,109.9,13.43,3.70,111.0
"2010-02-27 00:01:00",1716761,5.649,146.3,4.662,1.105,7.361,101.4188,2.919,4.271,33.73,0,109.8,13.43,3.68,108.3
"2010-02-27 00:01:30",1716762,4.39,135.8,6.027,1.21,4.604,101.4213,2.926,4.027,33.51,0,109.9,13.44,3.69,97.8
"2010-02-27 00:02:00",1716763,4.15,141.2,6.627,1.122,5.057,101.4214,2.926,4.099,33.57,0,109.8,13.44,3.69,103.2
"2010-02-27 00:02:30",1716764,4.53,141,6.589,1.223,5.267,101.4025,2.878,4.078,33.62,0,109.8,13.44,3.64,103.0
"2010-02-27 00:03:00",1716765,5.58,149,6.418,1.035,7.229,101.39,2.846,4.109,33.73,0,109.9,13.44,3.61,111.0
"2010-02-27 00:03:30",1716766,5.903,149.6,6.225,1.043,7.838,101.3903,2.847,4.207,33.91,0,109.9,13.44,3.61,111.6
"2010-02-27 00:04:00",1716767,5.844,147.5,5.841,1.032,7.772,101.3903,2.847,4.191,33.92,0,109.8,13.45,3.61,109.5
"2010-02-27 00:04:30",1716768,5.275,143.8,5.896,1.141,5.991,101.3877,2.84,4.031,33.7,0,109.8,13.45,3.60,105.8
"2010-02-27 00:05:00",1716769,4.757,140.9,5.363,1.205,5.074,101.3683,2.791,4.013,33.76,0,109.8,13.45,3.55,102.9
"2010-02-27 00:05:30",1716770,4.352,132.6,6.504,1.165,4.987,101.3564,2.76,3.987,34.27,0,109.8,13.45,3.52,94.6
"2010-02-27 00:06:00",1716771,5.389,138.3,6.195,1.152,6.378,101.3564,2.76,3.994,34.26,0,109.8,13.45,3.52,100.3
"2010-02-27 00:06:30",1716772,5.765,143.4,5.468,1.07,7.671,101.3564,2.76,4.129,34.12,0,109.8,13.45,3.52,105.4
"2010-02-27 00:07:00",1716773,5.339,146.4,5.507,1.053,7.755,101.3516,2.748,4.104,34.17,0,109.8,13.45,3.51,108.4
"2010-02-27 00:07:30",1716774,5.187,142.4,6.926,1.2,6.62,101.3256,2.682,4.07,34.13,0,109.8,13.45,3.44,104.4
"2010-02-27 00:08:00",1716775,4.717,141.1,6.241,1.376,4.748,101.3225,2.674,3.849,33.75,0,109.8,13.45,3.44,103.1
"2010-02-27 00:08:30",1716776,4.715,141.2,5.352,1.299,5.3,101.3225,2.674,3.858,33.79,0,109.8,13.45,3.44,103.2
"2010-02-27 00:09:00",1716777,4.067,141.5,5.212,1.042,5.069,101.3225,2.674,3.938,33.9,0,109.8,13.45,3.44,103.5
"2010-02-27 00:09:30",1716778,5.746,148.4,4.267,0.977,8.04,101.316,2.657,4.032,34.1,0,109.8,13.45,3.42,110.4
"2010-02-27 00:10:00",1716779,6.11,146.5,4.628,0.557,8.57,101.3044,2.628,4.028,34.32,0,109.8,13.46,3.39,108.5
"2010-02-27 00:10:30",1716780,6.196,148.2,3.951,0.739,8.04,101.2906,2.592,4.012,34.47,0,109.8,13.46,3.35,110.2
"2010-02-27 00:11:00",1716781,4.776,137.8,4.544,0.925,4.408,101.2886,2.587,3.808,34.28,0,109.8,13.46,3.35,99.8
"2010-02-27 00:11:30",1716782,5.461,137.4,6.998,1.234,5.084,101.2903,2.592,3.744,34.07,0,109.8,13.46,3.35,99.4
"2010-02-27 00:12:00",1716783,4.705,131.5,4.297,0.744,4.434,101.2932,2.599,3.775,33.93,0,109.8,13.46,3.36,93.5
"2010-02-27 00:12:30",1716784,6.632,143.6,5.365,0.554,8.73,101.283,2.573,3.977,34.09,0,109.8,13.46,3.33,105.6
"2010-02-27 00:13:00",1716785,6.64,147.9,3.518,0.781,8.6,101.2727,2.547,3.965,34.09,0,109.8,13.46,3.31,109.9
"2010-02-27 00:13:30",1716786,6.425,147.2,4.415,1.034,7.5,101.2773,2.558,3.895,34.11,0,109.8,13.46,3.32,109.2
"2010-02-27 00:14:00",1716787,5.093,145.6,5.211,1.181,5.2,101.2796,2.564,3.766,34.09,0,109.8,13.46,3.33,107.6
"2010-02-27 00:14:30",1716788,4.487,138.9,2.596,0.468,3.416,101.2836,2.574,3.655,34.06,0,109.8,13.46,3.34,100.9
"2010-02-27 00:15:00",1716789,6.235,142.8,4.55,1.281,6.083,101.2859,2.58,3.745,34.15,0,109.8,13.46,3.34,104.8
"2010-02-27 00:15:30",1716790,7.37,149.8,3.945,0.556,8.69,101.2814,2.569,3.93,34.26,0,109.8,13.46,3.33,111.8
"2010-02-27 00:16:00",1716791,6.883,143.4,3.937,0.803,8.53,101.2661,2.53,3.922,34.21,0,109.8,13.46,3.29,105.4
"2010-02-27 00:16:30",1716792,6.901,144.1,4.012,0.678,8.34,101.2559,2.504,3.907,34.18,0,109.8,13.46,3.26,106.1
"2010-02-27 00:17:00",1716793,6.745,147.3,2.519,0.732,7.718,101.2551,2.502,3.795,34.16,0,109.8,13.46,3.26,109.3
"2010-02-27 00:17:30",1716794,4.959,134.2,5.559,0.975,4.466,101.2551,2.502,3.687,34.17,0,109.8,13.46,3.26,96.2
"2010-02-27 00:18:00",1716795,4.334,138.6,3.93,0.472,3.563,101.2551,2.502,3.558,34.07,0,109.8,13.46,3.26,100.6
"2010-02-27 00:18:30",1716796,5.558,142.7,6.562,1.367,6.005,101.2551,2.502,3.759,34.29,0,109.8,13.46,3.26,104.7
"2010-02-27 00:19:00",1716797,6.718,148,5.093,0.921,8.54,101.2551,2.502,3.834,34.37,0,109.8,13.47,3.26,110.0
"2010-02-27 00:19:30",1716798,6.791,149.6,4.059,0.591,8.88,101.2525,2.495,3.848,34.42,0,109.8,13.47,3.26,111.6
"2010-02-27 00:20:00",1716799,6.928,149.8,3.518,0.772,8.38,101.2387,2.46,3.841,34.46,0,109.8,13.47,3.22,111.8
"2010-02-27 00:20:30",1716800,6.403,147.8,4.827,1.147,7.247,101.2282,2.433,3.814,34.62,0,109.8,13.47,3.19,109.8
"2010-02-27 00:21:00",1716801,5.377,142.1,5.652,1.204,5.132,101.2212,2.415,3.579,34.47,0,109.8,13.47,3.18,104.1
"2010-02-27 00:21:30",1716802,5.585,147.8,8.63,1.199,5.486,101.2212,2.415,3.56,34.44,0,109.8,13.47,3.18,109.8
"2010-02-27 00:22:00",1716803,5.555,148.8,7.193,1.174,5.885,101.2212,2.415,3.679,34.51,0,109.8,13.47,3.18,110.8
"2010-02-27 00:22:30",1716804,6.273,154,4.92,1.024,7.907,101.2212,2.415,3.751,34.44,0,109.8,13.48,3.18,116.0
"2010-02-27 00:23:00",1716805,6.465,154.6,4.471,0.318,8.69,101.2212,2.415,3.785,34.35,0,109.8,13.48,3.18,116.6
"2010-02-27 00:23:30",1716806,5.717,151.8,5.189,1.086,7.06,101.2212,2.415,3.704,34.32,0,109.8,13.48,3.18,113.8
"2010-02-27 00:24:00",1716807,4.739,145.8,6.372,1.199,4.929,101.2212,2.415,3.568,34.3,0,109.8,13.48,3.18,107.8
"2010-02-27 00:24:30",1716808,5.067,141,5.969,1.352,5.316,101.2212,2.415,3.55,34.5,0,109.8,13.48,3.18,103.0
"2010-02-27 00:25:00",1716809,5.153,143.3,5.576,1.228,6.023,101.2215,2.416,3.674,34.83,0,109.8,13.48,3.18,105.3
"2010-02-27 00:25:30",1716810,5.785,143.9,6.257,1.134,7.37,101.2232,2.42,3.741,35.08,0,109.8,13.48,3.18,105.9
"2010-02-27 00:26:00",1716811,6.676,142.5,4.17,0.564,8.19,101.2237,2.422,3.764,35.17,0,109.7,13.48,3.18,104.5
"2010-02-27 00:26:30",1716812,5.923,140.4,5.679,1.064,7.13,101.2229,2.42,3.664,34.92,0,109.7,13.48,3.18,102.4
"2010-02-27 00:27:00",1716813,4.847,137.8,5.511,1.111,5.275,101.2224,2.418,3.711,34.97,0,109.7,13.48,3.18,99.8
"2010-02-27 00:27:30",1716814,5.277,135.2,6.106,1.206,5.285,101.2159,2.402,3.536,34.69,0,109.7,13.48,3.16,97.2
"2010-02-27 00:28:00",1716815,5.813,140.5,6.081,1.12,7.216,101.2072,2.379,3.679,34.86,0,109.7,13.48,3.14,102.5
"2010-02-27 00:28:30",1716816,5.808,138.7,6.381,1.102,7.461,101.2035,2.37,3.665,34.86,0,109.7,13.48,3.13,100.7
"2010-02-27 00:29:00",1716817,5.554,147.6,7.289,1.06,7.014,101.2044,2.372,3.662,34.8,0,109.7,13.48,3.13,109.6
"2010-02-27 00:29:30",1716818,5.488,144.3,7.776,1.172,6.373,101.207,2.379,3.586,34.59,0,109.7,13.48,3.14,106.3
"2010-02-27 00:30:00",1716819,4.416,133.7,7.441,1.138,4.75,101.2084,2.383,3.526,34.53,0,109.7,13.48,3.14,95.7
"2010-02-27 00:30:30",1716820,4.532,143.1,6.305,1.278,5.268,101.2113,2.39,3.548,34.5,0,109.7,13.48,3.15,105.1
"2010-02-27 00:31:00",1716821,5.341,143.4,6.78,1.165,7.076,101.2144,2.398,3.653,34.63,0,109.7,13.48,3.16,105.4
"2010-02-27 00:31:30",1716822,5.31,144.3,6.433,1.217,6.733,101.2147,2.399,3.67,34.58,0,109.7,13.49,3.16,106.3
"2010-02-27 00:32:00",1716823,5.576,144.8,5.803,1.143,7.017,101.2156,2.401,3.659,34.57,0,109.7,13.48,3.16,106.8
"2010-02-27 00:32:30",1716824,4.945,142.1,5.69,1.261,5.505,101.2173,2.405,3.442,34.32,0,109.7,13.48,3.17,104.1
"2010-02-27 00:33:00",1716825,5.406,144.6,6.069,1.191,6.908,101.2128,2.394,3.606,34.48,0,109.8,13.48,3.15,106.6
"2010-02-27 00:33:30",1716826,5.486,146,5.648,1.1,7.083,101.2085,2.383,3.657,34.57,0,109.7,13.48,3.14,108.0
"2010-02-27 00:34:00",1716827,5.091,141.3,6.346,1.189,6.31,101.1967,2.353,3.566,34.5,0,109.7,13.49,3.11,103.3
"2010-02-27 00:34:30",1716828,5.289,142.2,6.392,1.102,6.217,101.1908,2.338,3.509,34.45,0,109.7,13.49,3.10,104.2
"2010-02-27 00:35:00",1716829,5.359,143.6,6.203,1.138,6.318,101.1876,2.33,3.554,34.45,0,109.7,13.49,3.09,105.6
"2010-02-27 00:35:30",1716830,4.272,137.5,4.357,0.829,4.247,101.1876,2.33,3.449,34.38,0,109.7,13.49,3.09,99.5
"2010-02-27 00:36:00",1716831,5.915,144,5.915,1.007,7.392,101.1876,2.33,3.597,34.54,0,109.7,13.49,3.09,106.0
"2010-02-27 00:36:30",1716832,5.44,146.5,6.147,1.294,6.835,101.1876,2.33,3.633,34.53,0,109.7,13.49,3.09,108.5
"2010-02-27 00:37:00",1716833,5.975,152,5.294,1.122,7.215,101.1876,2.33,3.591,34.43,0,109.7,13.5,3.09,114.0
"2010-02-27 00:37:30",1716834,4.393,145.4,4.526,1.334,4.792,101.1874,2.329,3.402,34.25,0,109.7,13.5,3.09,107.4
"2010-02-27 00:38:00",1716835,4.364,143.5,6.751,1.07,4.896,101.1851,2.323,3.519,34.41,0,109.7,13.5,3.08,105.5
"2010-02-27 00:38:30",1716836,5.513,143.3,6.236,1.243,6.462,101.1763,2.301,3.581,34.47,0,109.7,13.5,3.06,105.3
"2010-02-27 00:39:00",1716837,5.548,149.6,6.9,1.111,7.555,101.1605,2.26,3.642,34.45,0,109.7,13.5,3.02,111.6
"2010-02-27 00:39:30",1716838,5.467,146.9,6.591,1.177,7.179,101.1546,2.245,3.564,34.4,0,109.7,13.5,3.01,108.9
"2010-02-27 00:40:00",1716839,5.626,149.9,4.734,1.193,6.808,101.1543,2.244,3.563,34.38,0,109.7,13.5,3.00,111.9
"2010-02-27 00:40:30",1716840,5.053,147.9,4.516,1.206,5.307,101.1537,2.243,3.367,34.16,0,109.7,13.5,3.00,109.9
"2010-02-27 00:41:00",1716841,3.9,145.5,1.904,0.075,3.706,101.154,2.244,3.45,34.29,0,109.7,13.54,3.00,107.5
"2010-02-27 00:41:30",1716842,5.376,153.3,5.712,1.193,6.907,101.154,2.244,3.541,34.38,0,109.7,13.5,3.00,115.3
"2010-02-27 00:42:00",1716843,5.81,154.8,5.207,0.745,8.25,101.154,2.244,3.592,34.48,0,109.7,13.5,3.00,116.8
"2010-02-27 00:42:30",1716844,5.561,154.8,6.031,1.054,7.03,101.154,2.244,3.517,34.38,0,109.7,13.5,3.00,116.8
"2010-02-27 00:43:00",1716845,5.159,152.6,4.934,1.209,6.222,101.1554,2.247,3.459,34.27,0,109.7,13.5,3.01,114.6
"2010-02-27 00:43:30",1716846,4.203,155.1,5.004,1.064,5.07,101.1566,2.25,3.428,34.24,0,109.7,13.5,3.01,117.1
"2010-02-27 00:44:00",1716847,4.88,152.6,6.684,1.202,5.377,101.1518,2.238,3.338,34.13,0,109.7,13.5,3.00,114.6
"2010-02-27 00:44:30",1716848,5.163,152.4,5.987,1.285,6.305,101.1425,2.214,3.469,34.29,0,109.7,13.51,2.97,114.4
"2010-02-27 00:45:00",1716849,5.658,154.8,5.87,1.134,7.396,101.1338,2.192,3.565,34.38,0,109.7,13.51,2.95,116.8
"2010-02-27 00:45:30",1716850,5.882,158.6,4.242,0.861,7.777,101.1341,2.193,3.54,34.38,0,109.7,13.51,2.95,120.6
"2010-02-27 00:46:00",1716851,5.031,153,6.317,1.227,5.805,101.1364,2.199,3.466,34.31,0,109.7,13.51,2.96,115.0
"2010-02-27 00:46:30",1716852,4.097,149,5.766,0.832,4.142,101.1404,2.209,3.409,34.28,0,109.7,13.51,2.97,111.0
"2010-02-27 00:47:00",1716853,4.201,149.4,4.456,0.857,3.544,101.1409,2.21,3.238,34.2,0,109.7,13.51,2.97,111.4
"2010-02-27 00:47:30",1716854,5.369,158.4,8.1,1.298,6.516,101.1455,2.222,3.471,34.39,0,109.7,13.5,2.98,120.4
"2010-02-27 00:48:00",1716855,6.471,158.7,4.288,0.825,8.43,101.1458,2.223,3.547,34.33,0,109.7,13.5,2.98,120.7
"2010-02-27 00:48:30",1716856,6.641,159.1,4.113,0.549,8.2,101.1467,2.225,3.531,34.27,0,109.7,13.5,2.98,121.1
"2010-02-27 00:49:00",1716857,5.539,154.1,5.98,1.213,6.204,101.1487,2.23,3.386,34.09,0,109.7,13.5,2.99,116.1
"2010-02-27 00:49:30",1716858,4.181,146.4,1.134,0.056,3.496,101.1498,2.233,3.313,34,0,109.7,13.54,2.99,108.4
"2010-02-27 00:50:00",1716859,5.043,153,7.45,1.202,5.445,101.1515,2.237,3.376,34.04,0,109.7,13.5,3.00,115.0
"2010-02-27 00:50:30",1716860,5.567,155.5,6.377,1.226,6.876,101.1416,2.212,3.424,34.13,0,109.7,13.51,2.97,117.5
"2010-02-27 00:51:00",1716861,5.964,159.1,5.063,0.992,8.13,101.1391,2.206,3.523,34.21,0,109.7,13.51,2.97,121.1
"2010-02-27 00:51:30",1716862,6.044,158.6,5.011,0.99,7.339,101.1366,2.199,3.456,34.19,0,109.7,13.51,2.96,120.6
"2010-02-27 00:52:00",1716863,5.612,158.3,5.519,1.129,6.704,101.1335,2.191,3.455,34.19,0,109.7,13.51,2.95,120.3
"2010-02-27 00:52:30",1716864,4.814,151.3,5.586,1.055,4.105,101.1275,2.176,3.201,34,0,109.7,13.51,2.94,113.3
"2010-02-27 00:53:00",1716865,4.892,150,5.836,1.107,4.84,101.1224,2.163,3.31,34.16,0,109.7,13.51,2.92,112.0
"2010-02-27 00:53:30",1716866,5.403,155.9,6.425,1.185,7.125,101.121,2.16,3.43,34.31,0,109.7,13.51,2.92,117.9
"2010-02-27 00:54:00",1716867,6.178,160.8,3.864,0.607,8.29,101.1202,2.157,3.449,34.36,0,109.7,13.52,2.92,122.8
"2010-02-27 00:54:30",1716868,5.552,161.5,4.902,1.089,7.09,101.1202,2.157,3.435,34.34,0,109.7,13.52,2.92,123.5
"2010-02-27 00:55:00",1716869,5.195,161.1,7.178,1.242,6.575,101.1202,2.157,3.38,34.28,0,109.7,13.52,2.92,123.1
"2010-02-27 00:55:30",1716870,4.31,155.9,4.658,1.106,4.669,101.1202,2.157,3.261,34.15,0,109.7,13.52,2.92,117.9
"2010-02-27 00:56:00",1716871,4.177,153.2,6.578,1.186,4.525,101.1202,2.157,3.273,34.16,0,109.7,13.52,2.92,115.2
"2010-02-27 00:56:30",1716872,5.436,161,6.645,1.177,6.838,101.1202,2.157,3.382,34.31,0,109.7,13.52,2.92,123.0
"2010-02-27 00:57:00",1716873,5.661,165.3,4.874,0.945,8.05,101.1202,2.157,3.454,34.35,0,109.7,13.52,2.92,127.3
"2010-02-27 00:57:30",1716874,5.811,163.2,4.718,0.973,7.716,101.1202,2.157,3.43,34.34,0,109.7,13.52,2.92,125.2
"2010-02-27 00:58:00",1716875,5.311,160.4,5.817,1.168,6.526,101.119,2.155,3.37,34.31,0,109.7,13.52,2.91,122.4
"2010-02-27 00:58:30",1716876,4.133,148.7,2.93,0.727,3.262,101.1139,2.142,3.18,34.26,0,109.7,13.52,2.90,110.7
"2010-02-27 00:59:00",1716877,5.244,155.6,6.758,1.285,5.61,101.1088,2.129,3.314,34.45,0,109.7,13.52,2.89,117.6
"2010-02-27 00:59:30",1716878,5.761,157,5.453,1.083,7.271,101.1001,2.106,3.37,34.5,0,109.7,13.53,2.87,119.0
"2010-02-27 01:00:00",1716879,5.962,160,4.555,1.005,8.04,101.0902,2.081,3.383,34.51,0,109.7,13.53,2.84,122.0
"2010-02-27 01:00:30",1716880,5.904,161.2,4.634,0.942,7.593,101.0862,2.071,3.415,34.63,0,109.7,13.53,2.83,123.2
"2010-02-27 01:01:00",1716881,5.654,158.9,6.172,1.245,6.271,101.0862,2.071,3.338,34.59,0,109.7,13.53,2.83,120.9
"2010-02-27 01:01:30",1716882,5.079,154.7,6.748,1.286,5.343,101.0862,2.071,3.254,34.48,0,109.7,13.53,2.83,116.7
"2010-02-27 01:02:00",1716883,4.814,156.5,6.999,1.215,5.074,101.0862,2.071,3.307,34.54,0,109.7,13.53,2.83,118.5
"2010-02-27 01:02:30",1716884,4.946,156.5,6.274,1.217,5.267,101.0862,2.071,3.261,34.56,0,109.7,13.53,2.83,118.5
"2010-02-27 01:03:00",1716885,5.979,158.9,5.923,1.04,7.694,101.0862,2.071,3.44,34.65,0,109.7,13.53,2.83,120.9
"2010-02-27 01:03:30",1716886,6.516,162.6,3.745,0.678,8.29,101.0865,2.072,3.44,34.61,0,109.7,13.53,2.83,124.6
"2010-02-27 01:04:00",1716887,6.389,161.5,5.427,0.933,7.014,101.0874,2.074,3.264,34.5,0,109.7,13.52,2.83,123.5
"2010-02-27 01:04:30",1716888,5.497,156.8,7.077,1.225,5.456,101.0874,2.074,3.299,34.47,0,109.7,13.52,2.83,118.8
"2010-02-27 01:05:00",1716889,4.87,154.6,5.493,1.03,4.448,101.0911,2.083,3.259,34.42,0,109.7,13.52,2.84,116.6
"2010-02-27 01:05:30",1716890,6.104,159.6,6.068,1.206,6.337,101.0894,2.079,3.302,34.48,0,109.7,13.52,2.84,121.6
"2010-02-27 01:06:00",1716891,6.8,160.9,5.052,0.878,8.24,101.0866,2.072,3.411,34.61,0,109.7,13.52,2.83,122.9
"2010-02-27 01:06:30",1716892,6.999,161.6,3.471,0.672,7.911,101.0787,2.052,3.375,34.54,0,109.7,13.53,2.81,123.6
"2010-02-27 01:07:00",1716893,6.319,158.7,6.254,1.088,6.962,101.0781,2.05,3.392,34.62,0,109.7,13.52,2.81,120.7
"2010-02-27 01:07:30",1716894,5.58,153.2,6.674,1.185,4.708,101.0767,2.047,3.119,34.33,0,109.7,13.52,2.81,115.2
"2010-02-27 01:08:00",1716895,5.547,156.2,6.591,1.209,5.443,101.0719,2.034,3.21,34.51,0,109.7,13.53,2.79,118.2
"2010-02-27 01:08:30",1716896,6.096,160.7,6.306,1.2,6.097,101.0648,2.016,3.217,34.68,0,109.7,13.53,2.78,122.7
"2010-02-27 01:09:00",1716897,6.567,166.1,4.19,0.993,7.913,101.0646,2.016,3.366,34.95,0,109.7,13.53,2.77,128.1
"2010-02-27 01:09:30",1716898,6.588,161.9,5.51,1.046,7.159,101.0694,2.028,3.297,34.9,0,109.7,13.53,2.79,123.9
"2010-02-27 01:10:00",1716899,6.895,160.8,5.088,0.956,7.387,101.072,2.035,3.353,34.8,0,109.7,13.53,2.79,122.8
"2010-02-27 01:10:30",1716900,6.188,157,5.665,1.212,5.589,101.072,2.035,3.236,34.52,0,109.7,13.53,2.79,119.0
"2010-02-27 01:11:00",1716901,6.253,160.1,5.969,1.222,6.099,101.0749,2.042,3.274,34.72,0,109.7,13.53,2.80,122.1
"2010-02-27 01:11:30",1716902,6.076,158.2,6.411,1.222,5.421,101.0774,2.048,3.188,34.67,0,109.7,13.53,2.81,120.2
"2010-02-27 01:12:00",1716903,6.429,160.2,5.99,1.157,6.678,101.0789,2.052,3.276,34.62,0,109.7,13.54,2.81,122.2
"2010-02-27 01:12:30",1716904,6.463,160.9,5.615,1.147,7.019,101.078,2.05,3.309,34.6,0,109.7,13.54,2.81,122.9
"2010-02-27 01:13:00",1716905,7.096,162.4,3.886,0.558,8.22,101.0786,2.051,3.356,34.55,0,109.6,13.54,2.81,124.4
"2010-02-27 01:13:30",1716906,6.46,157.3,6.381,1.157,6.241,101.0786,2.051,3.268,34.42,0,109.7,13.54,2.81,119.3
"2010-02-27 01:14:00",1716907,6.311,157.8,6.454,1.191,6.151,101.0791,2.053,3.181,34.48,0,109.6,13.54,2.81,119.8
"2010-02-27 01:14:30",1716908,5.371,156.2,6.948,1.041,4.399,101.0786,2.051,3.181,34.64,0,109.7,13.54,2.81,118.2
"2010-02-27 01:15:00",1716909,5.473,159.8,5.405,1.097,4.768,101.0718,2.034,3.144,34.81,0,109.7,13.54,2.79,121.8
"2010-02-27 01:15:30",1716910,7.304,166.9,4.084,0.96,7.647,101.0641,2.014,3.299,34.97,0,109.7,13.54,2.77,128.9
"2010-02-27 01:16:00",1716911,6.998,164.6,5.866,1.049,7.196,101.0537,1.988,3.262,34.79,0,109.6,13.54,2.75,126.6
"2010-02-27 01:16:30",1716912,6.89,164.5,5.902,1.12,7.194,101.048,1.973,3.298,34.75,0,109.6,13.54,2.73,126.5
"2010-02-27 01:17:00",1716913,6.223,160.3,6.209,1.162,5.351,101.0483,1.974,3.262,34.66,0,109.6,13.54,2.73,122.3
"2010-02-27 01:17:30",1716914,6.996,163.9,5.623,1.076,6.865,101.0483,1.974,3.228,34.54,0,109.6,13.54,2.73,125.9
"2010-02-27 01:18:00",1716915,6.456,160.6,6.06,1.236,5.581,101.0501,1.979,3.138,34.43,0,109.6,13.54,2.74,122.6
"2010-02-27 01:18:30",1716916,6.784,162.9,6.277,1.124,6.623,101.0495,1.977,3.255,34.59,0,109.6,13.54,2.74,124.9
"2010-02-27 01:19:00",1716917,6.739,165.5,5.725,1.112,7.006,101.0503,1.979,3.206,34.55,0,109.6,13.54,2.74,127.5
"2010-02-27 01:19:30",1716918,6.683,165.1,5.809,1.179,7.043,101.0518,1.983,3.258,34.62,0,109.6,13.54,2.74,127.1
"2010-02-27 01:20:00",1716919,6.641,164,6.159,1.091,6.835,101.0509,1.981,3.288,34.66,0,109.6,13.54,2.74,126.0
"2010-02-27 01:20:30",1716920,6.769,165.3,5.34,1.045,6.784,101.0523,1.984,3.161,34.52,0,109.6,13.54,2.74,127.3
"2010-02-27 01:21:00",1716921,5.435,158.5,5.141,0.986,4.188,101.0526,1.985,3.085,34.4,0,109.6,13.53,2.74,120.5
"2010-02-27 01:21:30",1716922,6.316,163.5,6.462,1.216,6.069,101.0523,1.984,3.199,34.5,0,109.6,13.53,2.74,125.5
"2010-02-27 01:22:00",1716923,6.338,164.9,5.531,1.148,6.908,101.0523,1.984,3.233,34.6,0,109.6,13.53,2.74,126.9
"2010-02-27 01:22:30",1716924,6.448,165.1,6.084,1.081,7.03,101.0526,1.985,3.23,34.63,0,109.6,13.53,2.74,127.1
"2010-02-27 01:23:00",1716925,6.761,168.4,4.033,0.761,7.647,101.0526,1.985,3.197,34.53,0,109.6,13.54,2.74,130.4
"2010-02-27 01:23:30",1716926,5.064,160.7,5.32,1.037,4.623,101.0526,1.985,3.104,34.47,0,109.6,13.54,2.74,122.7
"2010-02-27 01:24:00",1716927,5.479,164.8,6.267,1.23,5.439,101.0526,1.985,3.178,34.53,0,109.6,13.54,2.74,126.8
"2010-02-27 01:24:30",1716928,5.412,165.5,6.838,1.236,5.626,101.0526,1.985,3.141,34.44,0,109.6,13.54,2.74,127.5
"2010-02-27 01:25:00",1716929,5.874,169.2,6.354,1.14,6.557,101.0526,1.985,3.241,34.53,0,109.6,13.54,2.74,131.2
"2010-02-27 01:25:30",1716930,6.188,172.7,5.343,1.057,7.238,101.0526,1.985,3.202,34.49,0,109.6,13.54,2.74,134.7
"2010-02-27 01:26:00",1716931,6.618,176.4,3.65,0.79,7.948,101.0526,1.985,3.273,34.51,0,109.6,13.54,2.74,138.4
"2010-02-27 01:26:30",1716932,5.451,172.6,5.996,1.227,5.934,101.0526,1.985,3.163,34.45,0,109.6,13.54,2.74,134.6
"2010-02-27 01:27:00",1716933,5.748,174.1,6.149,1.234,6.342,101.0524,1.984,3.227,34.47,0,109.6,13.54,2.74,136.1
"2010-02-27 01:27:30",1716934,4.886,169.3,5.271,1.067,4.309,101.0526,1.985,3.048,34.29,0,109.6,13.54,2.74,131.3
"2010-02-27 01:28:00",1716935,5.739,174.2,6.38,1.172,6.672,101.0526,1.985,3.188,34.41,0,109.6,13.55,2.74,136.2
"2010-02-27 01:28:30",1716936,6.099,176.3,5.487,1.11,7.2,101.0526,1.985,3.198,34.39,0,109.6,13.55,2.74,138.3
"2010-02-27 01:29:00",1716937,6.451,174.6,4.8,0.93,7.643,101.0526,1.985,3.295,34.63,0,109.6,13.55,2.74,136.6
"2010-02-27 01:29:30",1716938,6.266,171.7,5.126,1.086,6.535,101.0526,1.985,3.173,34.62,0,109.6,13.55,2.74,133.7
"2010-02-27 01:30:00",1716939,5.793,169.9,6.107,1.204,5.587,101.0526,1.985,3.082,34.54,0,109.6,13.55,2.74,131.9
"2010-02-27 01:30:30",1716940,5.618,168.8,6.546,1.255,5.339,101.0526,1.985,3.107,34.64,0,109.6,13.55,2.74,130.8
"2010-02-27 01:31:00",1716941,6.151,173.2,5.739,1.173,6.681,101.0526,1.985,3.169,34.71,0,109.6,13.55,2.74,135.2
"2010-02-27 01:31:30",1716942,6.501,172.8,5.353,1.024,7.071,101.0526,1.985,3.227,34.74,0,109.6,13.55,2.74,134.8
"2010-02-27 01:32:00",1716943,6.434,170.2,5.581,1.069,6.812,101.0526,1.985,3.218,34.69,0,109.6,13.55,2.74,132.2
"2010-02-27 01:32:30",1716944,6.48,169.8,5.348,1.173,6.722,101.0526,1.985,3.238,34.63,0,109.6,13.55,2.74,131.8
"2010-02-27 01:33:00",1716945,6.009,166.6,5.983,1.221,5.167,101.0509,1.981,3.049,34.35,0,109.6,13.55,2.74,128.6
"2010-02-27 01:33:30",1716946,5.971,166.6,6.287,1.193,5.279,101.0487,1.975,3.205,34.46,0,109.6,13.55,2.73,128.6
"2010-02-27 01:34:00",1716947,6.414,169.8,6.104,1.166,6.595,101.0458,1.968,3.166,34.43,0,109.6,13.55,2.73,131.8
"2010-02-27 01:34:30",1716948,6.497,172.7,5.529,1.151,7.093,101.0441,1.963,3.261,34.54,0,109.6,13.55,2.72,134.7
"2010-02-27 01:35:00",1716949,6.561,174.6,5.211,1.07,7.562,101.0416,1.957,3.202,34.54,0,109.6,13.55,2.72,136.6
"2010-02-27 01:35:30",1716950,6.745,174.6,4.462,0.864,7.49,101.0365,1.944,3.242,34.61,0,109.6,13.55,2.70,136.6
"2010-02-27 01:36:00",1716951,5.67,169.3,6.322,1.162,5.73,101.0357,1.942,3.161,34.47,0,109.6,13.55,2.70,131.3
"2010-02-27 01:36:30",1716952,5.935,170.1,6.024,1.242,5.213,101.0331,1.935,3.103,34.4,0,109.6,13.55,2.69,132.1
"2010-02-27 01:37:00",1716953,6.086,171.9,6.028,1.248,5.975,101.0294,1.926,3.179,34.49,0,109.6,13.55,2.68,133.9
"2010-02-27 01:37:30",1716954,6.512,175.4,5.326,1.054,7.062,101.0255,1.916,3.187,34.53,0,109.6,13.55,2.67,137.4
"2010-02-27 01:38:00",1716955,6.333,174.3,6.069,1.168,6.968,101.0241,1.912,3.212,34.54,0,109.6,13.55,2.67,136.3
"2010-02-27 01:38:30",1716956,6.679,176.1,5.254,0.991,7.374,101.0229,1.909,3.24,34.54,0,109.6,13.54,2.67,138.1
"2010-02-27 01:39:00",1716957,6.02,172.8,6.281,1.201,6.369,101.0229,1.909,3.244,34.52,0,109.6,13.55,2.67,134.8
"2010-02-27 01:39:30",1716958,5.614,171,6.157,1.212,5.174,101.0212,1.905,3.159,34.44,0,109.6,13.54,2.66,133.0
"2010-02-27 01:40:00",1716959,6.038,174.4,6.073,1.206,5.983,101.0207,1.904,3.19,34.46,0,109.6,13.54,2.66,136.4
"2010-02-27 01:40:30",1716960,6.466,177.8,5.764,1.07,6.784,101.019,1.899,3.16,34.44,0,109.6,13.55,2.66,139.8
"2010-02-27 01:41:00",1716961,6.723,178.8,5.656,0.993,7.32,101.0198,1.901,3.165,34.5,0,109.6,13.55,2.66,140.8
"2010-02-27 01:41:30",1716962,6.493,178.4,5.963,1.132,7.19,101.0207,1.904,3.212,34.55,0,109.6,13.56,2.66,140.4
"2010-02-27 01:42:00",1716963,6.637,179.6,5.603,1.036,7.358,101.0204,1.903,3.178,34.55,0,109.6,13.56,2.66,141.6
"2010-02-27 01:42:30",1716964,6.283,179.2,5.92,1.174,5.996,101.0215,1.906,3.054,34.47,0,109.6,13.56,2.66,141.2
"2010-02-27 01:43:00",1716965,5.188,175,5.518,0.912,4.573,101.0252,1.915,3.18,34.62,0,109.6,13.56,2.67,137.0
"2010-02-27 01:43:30",1716966,5.487,177.3,5.816,1.143,4.76,101.0283,1.923,3.021,34.47,0,109.6,13.56,2.68,139.3
"2010-02-27 01:44:00",1716967,6.685,182.1,5.404,0.875,7.352,101.0286,1.924,3.207,34.66,0,109.6,13.56,2.68,144.1
"2010-02-27 01:44:30",1716968,6.265,180.9,6.288,1.134,7.04,101.036,1.943,3.197,34.61,0,109.6,13.56,2.70,142.9
"2010-02-27 01:45:00",1716969,6.712,183.7,4.442,0.934,7.751,101.0422,1.959,3.211,34.6,0,109.6,13.56,2.72,145.7
"2010-02-27 01:45:30",1716970,6.12,178.9,6.464,1.202,5.998,101.0436,1.962,3.034,34.5,0,109.6,13.56,2.72,140.9
"2010-02-27 01:46:00",1716971,5.797,177.6,6.426,1.197,5.174,101.0479,1.973,3.048,34.68,0,109.6,13.56,2.73,139.6
"2010-02-27 01:46:30",1716972,5.743,176.9,6.189,1.195,5.316,101.0499,1.978,3.119,34.88,0,109.6,13.56,2.74,138.9
"2010-02-27 01:47:00",1716973,7.008,183.5,4.457,0.69,7.562,101.0553,1.992,3.17,35,0,109.6,13.56,2.75,145.5
"2010-02-27 01:47:30",1716974,6.527,180.6,5.886,1.089,7.625,101.0584,2,3.274,35.03,0,109.6,13.56,2.76,142.6